Location: Unspecified
(47.9110°N, 14.3980°E)
Time: 02:07:24
(UTC+00:00)

Resurs 01 Rocket - Pass Details

Date: 06 August 2020
Orbit: 634 x 644 km, 98.0° (Epoch: 25 September)

Event Time Altitude Azimuth Distance (km) Brightness Sun altitude
Exits shadow 20:17:57 - 197° (SSW) 2,398 4.3 -15.3°
Reaches altitude 10° 20:18:59 10° 203° (SSW) 2,020 3.9 -15.4°
Maximum altitude 20:22:51 30° 265° (W) 1,160 3.3 -15.9°
Drops below altitude 10° 20:26:45 10° 326° (NW) 2,040 5.5 -16.3°
Sets 20:29:13 0° 338° (NNW) 2,956 6.5 -16.6°
